Wind_Speed
19 19 18 18 19 20 21 21 19 17 17 18 17 16 17 16 15 16 16 14 14 12 12 10 10 11 10 10 9 9 8 7 7 6 5 4 3 2 3 5 6 8 10 11
19 20 19 18 19 20 20 21 21 20 19 19 20 20 21 21 21 20 19 18 18 17 16 15 14 13 12 11 11 10 9 9 8 7 6 5 5 5 6 7 9 11 12 13
20 19 19 20 19 19 19 20 21 20 20 20 21 22 22 22 22 22 22 21 20 19 17 16 15 14 13 12 11 10 9 9 8 7 6 7 7 8 9 11 12 13 15 16
19 19 20 19 18 17 18 18 19 19 20 19 19 19 20 21 21 21 20 20 19 18 17 16 15 14 13 12 12 11 11 10 10 10 10 10 10 10 11 13 14 15 17 18
20 18 18 17 16 16 16 17 17 18 18 17 17 18 20 21 20 20 20 19 19 18 17 17 16 16 15 14 14 13 13 12 12 12 12 12 12 12 13 14 16 17 19 20
21 19 18 17 16 15 15 16 16 17 17 17 17 19 20 20 20 20 20 19 19 18 18 18 17 17 16 16 16 16 16 15 15 15 14 14 14 14 14 14 15 16 18 19
21 20 18 17 16 16 15 16 15 15 16 16 17 17 18 19 19 19 19 19 19 19 19 19 18 18 18 18 18 18 18 18 18 17 17 17 17 17 17 16 16 15 16 16
20 19 18 17 16 16 16 15 14 14 14 14 15 16 16 17 17 18 18 18 18 19 19 19 19 19 19 19 19 20 20 20 20 20 20 20 20 20 19 18 17 15 14 13
20 19 18 17 16 15 15 15 14 13 12 12 13 14 15 15 16 16 17 17 17 18 18 19 19 20 20 20 20 20 21 22 22 22 22 22 21 22 21 20 18 17 16 14
19 18 17 17 17 16 15 15 14 12 11 11 12 12 13 14 14 15 15 16 16 17 17 18 18 18 19 19 20 20 21 22 22 23 23 23 22 23 24 22 21 20 18 17
17 17 17 17 17 16 15 15 14 13 11 10 10 11 11 12 12 13 14 14 15 16 16 16 17 17 18 19 19 20 20 21 22 22 23 24 24 24 25 25 23 23 22 21
14 15 16 16 16 16 16 15 14 13 11 10 9 9 9 10 11 11 12 13 14 14 15 15 16 17 17 18 19 19 20 21 21 22 23 24 24 25 26 26 26 26 26 25
11 13 14 15 15 15 15 15 14 13 12 10 8 8 8 8 9 10 10 11 12 13 14 15 16 16 17 17 18 19 20 20 20 21 22 23 24 25 26 27 28 28 28 28
9 10 11 13 13 14 15 15 14 13 12 10 7 6 6 6 7 7 8 9 10 11 13 14 15 16 17 17 17 17 18 19 19 20 21 22 22 23 25 25 27 28 28 29
9 10 10 11 12 12 13 14 14 13 12 11 9 6 5 4 4 5 6 7 8 9 11 12 14 15 15 16 16 16 17 17 18 18 20 20 20 21 22 23 24 26 27 27
11 10 10 10 10 11 11 12 13 13 12 11 10 7 5 4 4 4 5 5 6 8 9 11 12 13 14 15 15 16 16 17 17 17 18 18 19 19 20 20 21 22 23 24
13 12 12 11 11 10 10 11 11 12 12 11 10 8 7 5 5 5 5 5 6 6 8 9 10 11 12 13 13 14 15 16 17 17 17 17 17 17 18 18 18 18 19 20
15 15 14 14 13 12 11 11 10 10 11 11 10 9 8 7 6 6 6 6 6 6 7 7 8 9 10 11 11 12 13 14 15 16 16 17 17 17 17 17 16 16 16 16
17 17 16 16 15 14 14 13 12 11 10 10 10 10 9 8 8 8 8 8 8 8 8 7 7 7 8 9 9 10 11 12 13 15 15 16 16 16 16 16 15 15 14 14
21 20 19 18 18 17 16 15 14 13 12 11 11 10 10 9 9 9 9 9 10 10 9 9 8 8 7 7 8 8 9 10 11 13 14 15 15 15 15 15 15 14 13 13
25 24 23 22 21 20 19 18 17 17 16 15 13 12 12 11 11 10 10 10 11 11 11 11 10 10 9 8 7 7 8 8 9 10 12 13 14 14 14 14 14 13 13 12
30 28 27 26 24 24 23 22 21 20 19 18 17 16 15 14 13 12 12 12 12 12 12 12 12 12 11 10 9 8 8 8 8 8 9 10 12 13 13 13 13 12 12 11
35 33 32 30 29 28 27 25 25 24 23 22 21 20 19 18 16 15 15 14 14 14 13 13 13 13 13 13 12 11 10 9 9 8 8 9 10 11 11 12 12 11 11 10
40 39 37 36 34 32 31 30 29 28 26 26 25 24 24 22 21 19 18 17 16 15 14 14 14 14 14 14 14 13 12 12 11 10 9 9 9 9 9 10 10 10 9 9
46 44 42 41 39 38 36 35 34 32 31 30 29 28 27 26 26 25 23 21 20 18 17 16 16 15 15 15 15 15 15 15 14 13 12 11 11 10 9 9 9 9 9 8
51 49 47 46 44 43 41 40 38 37 35 34 33 32 31 30 30 29 28 27 25 23 22 20 19 18 17 17 16 16 16 16 17 17 16 15 14 13 12 11 10 9 9 8
55 53 52 50 49 47 46 44 43 41 40 39 38 37 35 34 33 33 32 31 30 29 27 25 23 22 20 19 19 18 17 18 18 18 18 18 18 17 15 14 13 12 11 10
Wind_Direction
22 23 23 26 28 30 33 34 38 43 46 43 46 46 48 51 50 53 58 62 66 72 76 78 75 72 67 63 63 61 61 62 54 46 39 27 7 328 301 280 269 267 261 261
31 29 27 30 32 33 35 39 44 47 49 46 47 51 53 54 55 56 58 62 63 63 63 63 63 62 60 56 55 56 55 51 45 37 25 10 352 329 312 296 287 280 275 271
34 31 31 34 34 36 39 43 45 48 51 52 53 54 56 56 55 55 55 56 57 57 57 56 55 55 54 52 49 46 42 37 30 19 4 346 331 318 307 298 292 285 280 276
34 34 35 34 35 37 38 41 44 47 50 53 54 56 57 57 55 54 53 53 53 53 53 54 53 51 50 49 45 40 34 26 18 8 358 347 335 323 312 303 296 291 286 282
32 36 37 35 35 35 36 39 43 45 46 48 50 54 56 56 54 52 51 51 51 50 50 49 49 49 48 45 41 36 31 26 19 11 4 355 344 333 322 311 301 295 289 285
31 33 35 33 33 31 32 38 39 42 44 47 50 53 53 53 52 51 50 50 49 47 48 48 48 48 47 45 43 40 37 33 27 22 16 8 360 350 340 328 315 305 297 290
29 31 33 31 31 30 31 33 37 42 44 46 49 50 51 51 51 50 49 48 47 49 50 50 50 50 49 48 45 43 39 34 29 24 19 13 7 0 353 345 335 324 312 303
27 29 30 29 29 29 29 30 34 39 42 45 48 51 53 52 50 50 49 49 50 50 51 51 51 51 50 48 46 42 38 33 29 26 22 18 14 10 6 1 357 352 343 330
24 25 27 28 28 28 26 27 30 35 38 42 47 50 51 51 50 50 49 50 51 51 52 53 52 50 48 46 43 39 35 31 28 25 23 21 20 18 15 12 10 7 4 357
21 23 24 24 24 25 23 22 25 31 36 41 45 47 48 49 50 50 51 51 52 52 53 52 50 49 45 42 38 35 32 29 28 27 26 25 24 23 22 21 20 18 15 10
19 22 23 22 22 22 21 20 22 28 34 40 44 47 48 50 51 51 52 54 54 53 52 49 47 43 39 36 34 32 30 28 29 29 28 28 28 28 28 29 29 28 26 23
12 16 19 20 20 21 21 20 21 24 31 36 42 46 48 50 51 51 53 54 52 50 48 44 40 37 34 32 31 30 29 30 30 30 29 30 31 32 34 35 35 35 34 35
357 4 9 12 14 15 17 17 17 19 24 29 35 39 45 48 48 50 51 50 48 46 42 38 35 32 30 29 30 30 29 30 31 31 31 33 35 36 38 40 40 40 40 41
330 342 353 0 5 8 10 12 13 14 16 19 22 26 33 39 43 45 45 44 42 39 37 34 30 28 26 26 27 28 28 29 30 31 32 34 35 37 38 40 41 42 43 45
305 317 329 341 351 358 3 7 10 10 10 12 13 10 10 17 26 29 30 30 31 30 28 28 26 24 24 25 26 27 28 29 29 30 31 32 34 36 38 39 41 43 45 48
293 298 307 318 329 340 351 358 4 8 7 6 6 5 353 347 351 357 3 9 13 16 19 21 22 22 23 24 26 26 27 28 29 28 28 29 31 33 35 37 40 42 45 47
287 289 293 299 307 317 326 337 348 357 1 1 359 357 351 335 324 324 332 342 350 357 5 11 15 17 20 22 23 23 24 26 28 28 27 27 28 30 32 34 36 39 42 45
282 284 286 289 292 297 305 311 320 333 346 351 352 348 341 331 319 312 313 318 327 337 346 355 4 9 12 14 16 17 19 21 23 24 25 25 27 29 30 31 32 35 38 41
277 279 281 282 284 286 289 293 297 304 316 329 337 339 336 327 317 309 307 309 312 318 323 332 342 351 358 2 4 6 9 13 15 17 19 21 23 25 27 28 29 31 34 37
273 275 276 277 278 279 280 282 284 286 291 299 311 320 323 322 319 312 304 301 302 305 310 314 319 325 332 338 344 349 353 359 5 9 13 17 19 22 24 26 27 28 30 33
272 272 273 274 274 274 274 276 277 278 279 281 287 295 302 307 309 310 309 305 300 299 302 303 304 306 308 313 318 324 331 339 348 357 4 9 13 16 19 22 24 25 26 28
269 270 271 271 271 270 270 271 271 272 273 274 275 278 283 289 294 297 300 304 305 304 303 301 300 298 298 297 296 298 304 313 324 336 347 356 3 8 12 16 18 20 21 23
265 267 268 268 267 267 267 267 267 267 268 269 270 271 272 276 280 284 288 292 298 301 302 303 302 299 296 295 291 286 286 291 299 309 319 331 344 354 0 6 11 14 16 17
262 263 264 265 265 264 263 263 263 263 264 265 265 266 267 268 270 273 277 280 284 290 295 298 302 303 298 292 288 285 282 281 283 289 295 302 314 328 340 349 357 1 5 8
259 260 261 262 263 262 261 260 260 260 260 261 261 262 263 264 264 266 268 270 273 277 282 287 292 297 300 297 291 285 282 279 276 276 279 284 289 296 306 318 330 341 347 350
257 258 259 259 260 260 260 260 259 258 257 257 258 258 259 260 261 262 263 264 265 268 271 276 281 285 289 294 295 291 285 281 279 275 272 273 276 280 284 289 297 307 316 324
255 256 256 257 257 258 258 258 257 256 255 255 255 256 257 257 258 259 260 261 262 262 264 267 270 275 279 283 287 290 289 285 282 279 275 272 270 270 273 276 280 285 290 296
Height
5837 5833 5829 5825 5821 5818 5814 5811 5807 5804 5802 5800 5797 5794 5791 5789 5787 5786 5784 5784 5783 5783 5782 5782 5782 5782 5782 5782 5781 5781 5781 5781 5781 5781 5780 5781 5781 5781 5782 5782 5783 5784 5784 5785
5839 5835 5832 5828 5825 5821 5818 5815 5811 5809 5806 5804 5801 5798 5796 5794 5792 5791 5789 5788 5787 5787 5786 5786 5785 5785 5785 5784 5784 5784 5783 5783 5782 5782 5782 5782 5781 5781 5781 5781 5781 5781 5781 5781
5842 5839 5835 5831 5829 5825 5822 5819 5817 5814 5812 5809 5806 5804 5802 5799 5798 5796 5795 5793 5792 5791 5791 5790 5789 5788 5788 5787 5786 5786 5785 5784 5784 5783 5782 5782 5781 5780 5779 5778 5777 5777 5776 5776
5845 5842 5838 5838 5832 5830 5827 5824 5821 5818 5816 5813 5811 5809 5807 5805 5803 5802 5800 5799 5797 5796 5794 5793 5792 5791 5790 5789 5789 5788 5787 5785 5784 5783 5782 5781 5779 5778 5776 5775 5773 5772 5770 5770
5849 5845 5842 5840 5837 5834 5831 5828 5825 5823 5820 5818 5816 5814 5811 5809 5808 5806 5805 5803 5801 5800 5798 5797 5795 5794 5793 5792 5791 5789 5788 5786 5785 5783 5781 5779 5777 5775 5773 5771 5768 5766 5765 5763
5852 5849 5846 5845 5841 5838 5836 5832 5829 5827 5825 5822 5820 5818 5816 5814 5812 5810 5809 5807 5805 5803 5802 5800 5798 5797 5796 5794 5793 5791 5789 5788 5786 5784 5781 5779 5776 5773 5770 5767 5764 5761 5759 5757
5856 5853 5850 5847 5844 5842 5840 5838 5834 5831 5829 5827 5824 5823 5821 5818 5817 5815 5813 5811 5809 5807 5805 5804 5802 5801 5799 5797 5796 5794 5792 5789 5787 5784 5781 5778 5775 5771 5767 5763 5760 5756 5753 5751
5860 5857 5856 5850 5847 5846 5843 5840 5837 5835 5833 5831 5829 5827 5825 5823 5821 5819 5817 5815 5813 5812 5810 5808 5806 5804 5803 5801 5799 5797 5795 5792 5789 5786 5782 5778 5774 5770 5766 5761 5757 5753 5750 5747
5864 5862 5858 5854 5851 5849 5846 5843 5841 5839 5837 5835 5833 5831 5829 5827 5826 5824 5822 5820 5818 5816 5814 5813 5811 5809 5807 5805 5802 5800 5798 5795 5791 5788 5784 5779 5775 5771 5766 5762 5757 5753 5749 5745
5866 5863 5860 5857 5854 5851 5849 5846 5843 5841 5840 5838 5836 5835 5833 5831 5830 5828 5826 5824 5822 5821 5819 5817 5815 5813 5811 5809 5806 5804 5801 5797 5794 5790 5786 5782 5778 5773 5768 5763 5759 5754 5749 5745
5869 5866 5863 5860 5857 5854 5852 5849 5846 5844 5842 5840 5839 5838 5836 5835 5833 5832 5830 5828 5827 5825 5823 5821 5819 5817 5815 5812 5809 5807 5804 5800 5797 5793 5790 5785 5781 5776 5771 5766 5761 5756 5752 5747
5871 5868 5866 5863 5860 5857 5854 5851 5849 5846 5844 5843 5841 5840 5839 5838 5836 5835 5833 5832 5830 5829 5827 5825 5823 5820 5818 5815 5812 5810 5807 5803 5800 5797 5793 5789 5785 5780 5776 5770 5765 5760 5755 5750
5871 5869 5867 5865 5862 5859 5856 5854 5851 5849 5847 5845 5844 5842 5841 5840 5839 5837 5836 5835 5833 5832 5830 5828 5825 5823 5821 5818 5815 5813 5810 5807 5804 5800 5797 5793 5789 5785 5780 5776 5771 5766 5761 5756
5871 5869 5868 5866 5863 5861 5858 5856 5853 5851 5849 5847 5845 5844 5843 5842 5841 5839 5838 5837 5835 5834 5832 5830 5828 5826 5823 5821 5818 5815 5813 5810 5807 5804 5801 5797 5793 5790 5786 5781 5777 5772 5768 5763
5869 5868 5867 5866 5864 5862 5860 5857 5855 5852 5850 5848 5847 5845 5844 5843 5842 5841 5840 5838 5837 5836 5834 5832 5830 5828 5826 5823 5821 5818 5816 5813 5810 5807 5804 5801 5798 5794 5791 5787 5783 5779 5775 5771
5867 5866 5865 5864 5863 5862 5860 5858 5856 5854 5851 5849 5847 5846 5845 5844 5843 5842 5841 5839 5838 5837 5835 5834 5832 5830 5828 5825 5823 5821 5818 5816 5813 5810 5807 5805 5802 5798 5795 5792 5789 5786 5782 5778
5864 5864 5863 5862 5861 5860 5859 5858 5856 5854 5852 5850 5848 5846 5845 5844 5843 5842 5841 5840 5839 5837 5836 5835 5833 5831 5829 5827 5825 5823 5821 5818 5816 5813 5811 5808 5805 5802 5799 5796 5794 5791 5788 5785
5860 5860 5860 5859 5859 5858 5857 5856 5855 5854 5852 5850 5848 5847 5845 5844 5843 5842 5841 5840 5839 5837 5836 5835 5833 5832 5830 5828 5827 5825 5823 5821 5818 5816 5813 5811 5808 5805 5802 5800 5797 5795 5793 5790
5856 5856 5855 5855 5855 5854 5854 5853 5853 5852 5851 5849 5848 5846 5845 5843 5842 5841 5840 5839 5838 5837 5835 5834 5833 5831 5830 5828 5827 5825 5824 5822 5820 5818 5815 5813 5810 5808 5805 5803 5800 5798 5796 5794
5850 5850 5850 5850 5850 5850 5850 5849 5849 5849 5848 5847 5846 5845 5844 5842 5841 5839 5838 5837 5836 5835 5834 5833 5832 5830 5829 5828 5827 5825 5824 5823 5821 5819 5817 5815 5813 5810 5808 5805 5803 5801 5799 5797
5843 5844 5844 5844 5845 5845 5845 5844 5844 5844 5844 5844 5843 5843 5842 5840 5839 5838 5837 5835 5834 5833 5832 5831 5830 5829 5828 5827 5825 5824 5823 5822 5821 5820 5818 5816 5814 5812 5810 5808 5805 5803 5801 5799
5835 5836 5837 5837 5838 5838 5838 5839 5839 5839 5839 5839 5839 5839 5838 5838 5837 5836 5834 5833 5832 5831 5830 5829 5828 5826 5825 5824 5824 5823 5822 5821 5820 5819 5818 5817 5815 5813 5811 5809 5807 5805 5803 5801
5826 5827 5828 5829 5830 5830 5831 5831 5832 5832 5832 5833 5833 5833 5833 5833 5833 5832 5831 5831 5829 5828 5827 5826 5825 5824 5823 5822 5821 5820 5820 5819 5818 5817 5817 5816 5815 5813 5812 5810 5808 5807 5805 5803
5814 5816 5818 5819 5820 5821 5822 5823 5823 5824 5825 5825 5826 5826 5827 5827 5827 5827 5827 5826 5826 5825 5824 5823 5822 5821 5820 5819 5818 5818 5817 5817 5816 5815 5815 5814 5813 5812 5811 5810 5809 5807 5806 5804
5801 5803 5805 5807 5809 5810 5811 5812 5814 5815 5816 5817 5817 5818 5819 5819 5820 5820 5820 5821 5820 5820 5820 5819 5818 5817 5816 5815 5815 5814 5814 5813 5813 5812 5812 5811 5811 5810 5809 5809 5808 5807 5805 5804
5786 5789 5791 5794 5795 5797 5799 5801 5802 5804 5805 5807 5808 5808 5809 5810 5811 5812 5812 5813 5814 5814 5814 5814 5813 5813 5812 5811 5810 5810 5809 5809 5808 5808 5808 5808 5807 5807 5806 5806 5805 5805 5804 5803
5769 5772 5775 5778 5781 5783 5785 5787 5789 5792 5793 5795 5796 5798 5799 5800 5801 5802 5803 5804 5805 5806 5806 5807 5807 5807 5807 5806 5806 5805 5804 5804 5803 5803 5803 5803 5803 5803 5802 5802 5802 5801 5801 5800